ANZ127L NZWR-NZAA

Flight info

Callsign ANZ127L
Flight time 0h 16m
Altitude 10000
Route SF2P SF H150 UKAPA UKAPA2D
Aircraft DH8C/M-SDFGR/S

Departure

Time 2026-05-05 08:55
Airport Whangarei Airport (NZWR)

Arrival

Time 2026-05-05 09:11
Airport Auckland International Airport (NZAA)
Time Latitude Longitude Altitude Speed Heading
2026-05-05 08:37 -35.76776 174.36450 122 ft 0 kts 314°
2026-05-05 08:38 -35.76764 174.36492 124 ft 0 kts 351°
2026-05-05 08:51 -35.76760 174.36496 120 ft 1 kts 66°
2026-05-05 08:51 -35.76756 174.36539 125 ft 5 kts 87°
2026-05-05 08:52 -35.76764 174.36540 124 ft 6 kts 250°
2026-05-05 08:52 -35.76786 174.36495 123 ft 4 kts 215°
2026-05-05 08:52 -35.76815 174.36486 125 ft 5 kts 177°
2026-05-05 08:52 -35.76855 174.36490 127 ft 7 kts 176°
2026-05-05 08:53 -35.76907 174.36408 126 ft 18 kts 261°
2026-05-05 08:53 -35.76926 174.36249 127 ft 20 kts 262°
2026-05-05 08:53 -35.76949 174.36068 124 ft 22 kts 261°
2026-05-05 08:53 -35.76971 174.35885 129 ft 20 kts 262°
2026-05-05 08:54 -35.76992 174.35768 132 ft 6 kts 300°
2026-05-05 08:54 -35.76980 174.35827 130 ft 15 kts 84°
2026-05-05 08:54 -35.76949 174.36075 124 ft 56 kts 79°
2026-05-05 08:54 -35.76868 174.36711 128 ft 97 kts 81°
2026-05-05 08:55 -35.76708 174.37756 148 ft 145 kts 77°
2026-05-05 08:55 -35.76490 174.38992 613 ft 152 kts 83°
2026-05-05 08:55 -35.76588 174.40396 774 ft 177 kts 109°
2026-05-05 08:55 -35.77028 174.41846 1063 ft 190 kts 111°
2026-05-05 08:56 -35.77868 174.43209 1086 ft 218 kts 144°
2026-05-05 08:56 -35.79382 174.43736 1085 ft 241 kts 180°
2026-05-05 08:56 -35.81015 174.43082 1088 ft 256 kts 215°
2026-05-05 08:56 -35.82193 174.41415 1098 ft 262 kts 238°
2026-05-05 08:57 -35.83306 174.39714 1425 ft 237 kts 226°
2026-05-05 08:57 -35.84487 174.38457 1704 ft 223 kts 209°
2026-05-05 08:57 -35.85919 174.37802 1694 ft 223 kts 197°
2026-05-05 08:57 -35.87290 174.36945 2010 ft 222 kts 214°
2026-05-05 08:58 -35.88527 174.35738 2241 ft 232 kts 217°
2026-05-05 08:58 -35.89994 174.34926 2524 ft 232 kts 186°
2026-05-05 08:58 -35.91588 174.34793 2916 ft 230 kts 182°
2026-05-05 08:58 -35.93180 174.34452 3269 ft 233 kts 194°
2026-05-05 08:59 -35.94748 174.33886 3577 ft 236 kts 194°
2026-05-05 08:59 -36.04629 174.31040 5714 ft 243 kts 193°
2026-05-05 08:59 -36.18065 174.27177 8384 ft 252 kts 193°
2026-05-05 08:59 -36.29194 174.23959 10029 ft 275 kts 191°
2026-05-05 09:00 -36.32897 174.24839 10029 ft 284 kts 149°
2026-05-05 09:00 -36.36642 174.26540 10054 ft 293 kts 168°
2026-05-05 09:00 -36.40551 174.27836 10027 ft 281 kts 160°
2026-05-05 09:00 -36.44161 174.29289 10004 ft 267 kts 163°
2026-05-05 09:01 -36.47724 174.30623 9986 ft 259 kts 163°
2026-05-05 09:01 -36.60972 174.35543 9987 ft 249 kts 163°
2026-05-05 09:01 -36.66517 174.37686 10010 ft 248 kts 162°
2026-05-05 09:01 -36.68707 174.38483 10008 ft 248 kts 163°
2026-05-05 09:02 -36.70339 174.39105 9898 ft 252 kts 162°
2026-05-05 09:02 -36.72059 174.39754 9557 ft 264 kts 163°
2026-05-05 09:02 -36.73851 174.40411 9242 ft 271 kts 163°
2026-05-05 09:02 -36.75674 174.41099 8950 ft 275 kts 163°
2026-05-05 09:03 -36.77513 174.41792 8665 ft 278 kts 163°
2026-05-05 09:03 -36.79370 174.42492 8383 ft 280 kts 163°
2026-05-05 09:03 -36.81238 174.43198 8099 ft 281 kts 163°
2026-05-05 09:03 -36.83108 174.43896 7819 ft 281 kts 163°
2026-05-05 09:04 -36.84973 174.44589 7431 ft 285 kts 163°
2026-05-05 09:04 -36.86880 174.45289 7015 ft 283 kts 164°
2026-05-05 09:04 -36.88712 174.45952 6560 ft 268 kts 164°
2026-05-05 09:04 -36.90461 174.46609 6061 ft 257 kts 162°
2026-05-05 09:05 -36.92139 174.47262 5550 ft 249 kts 162°
2026-05-05 09:05 -36.93780 174.47894 5030 ft 243 kts 162°
2026-05-05 09:05 -36.95389 174.48493 4498 ft 239 kts 162°
2026-05-05 09:05 -36.98420 174.49655 3483 ft 232 kts 160°
2026-05-05 09:06 -37.00502 174.50453 2761 ft 226 kts 159°
2026-05-05 09:06 -37.01979 174.51089 2214 ft 223 kts 158°
2026-05-05 09:06 -37.03415 174.51722 1624 ft 221 kts 157°
2026-05-05 09:06 -37.04840 174.52381 1253 ft 211 kts 158°
2026-05-05 09:07 -37.06187 174.52935 1067 ft 196 kts 155°
2026-05-05 09:07 -37.07232 174.53897 788 ft 190 kts 121°
2026-05-05 09:07 -37.07617 174.55426 1106 ft 186 kts 90°
2026-05-05 09:07 -37.07309 174.57005 1370 ft 193 kts 65°
2026-05-05 09:08 -37.06711 174.58572 1502 ft 203 kts 67°
2026-05-05 09:08 -37.06243 174.60271 1668 ft 209 kts 72°
2026-05-05 09:08 -37.05857 174.61887 1832 ft 210 kts 71°
2026-05-05 09:08 -37.05375 174.63615 1887 ft 217 kts 69°
2026-05-05 09:09 -37.04893 174.65309 2316 ft 183 kts 69°
2026-05-05 09:09 -37.04503 174.66775 2309 ft 181 kts 71°
2026-05-05 09:09 -37.04136 174.68290 1777 ft 191 kts 71°
2026-05-05 09:09 -37.03694 174.69841 1323 ft 183 kts 70°
2026-05-05 09:10 -37.03276 174.71292 958 ft 172 kts 70°
2026-05-05 09:10 -37.02882 174.72651 634 ft 164 kts 71°
2026-05-05 09:10 -37.02478 174.73996 573 ft 164 kts 72°
2026-05-05 09:10 -37.02123 174.75340 308 ft 166 kts 72°
2026-05-05 09:11 -37.01744 174.76706 127 ft 164 kts 72°
2026-05-05 09:11 -37.01389 174.77990 31 ft 145 kts 73°
2026-05-05 09:11 -37.01099 174.79034 22 ft 110 kts 69°
2026-05-05 09:11 -37.00927 174.79544 21 ft 37 kts 54°
2026-05-05 09:12 -37.00779 174.79723 21 ft 19 kts 30°
2026-05-05 09:12 -37.00662 174.79687 22 ft 15 kts 322°
2026-05-05 09:12 -37.00665 174.79563 24 ft 17 kts 251°
2026-05-05 09:12 -37.00704 174.79420 21 ft 18 kts 249°
2026-05-05 09:13 -37.00711 174.79340 21 ft 5 kts 332°
2026-05-05 09:13 -37.00652 174.79311 22 ft 9 kts 322°
2026-05-05 09:13 -37.00636 174.79286 24 ft 0 kts 302°
2026-05-05 09:13 -37.00634 174.79283 23 ft 0 kts 302°